Regional Weather Roundup
Issued by NWS

Home | Current Version | Previous Version | Text Only | Print | Product List | Glossary On
Versions: 1 2 3 4 5 6 7 8 9 10 11 12 13 14 15 16 17 18 19 20 21 22 23 24 25 26 27 28 29 30 31 32 33 34 35 36 37 38 39 40 41 42 43 44 45 46 47 48 49 50
000
ASUS45 KABQ 202210
RWRNM
WEATHER ROUNDUP FOR NEW MEXICO
NATIONAL WEATHER SERVICE ALBUQUERQUE NM
400 PM MDT SUN APR 20 2014

NOTE: "FAIR" MEANS FEW OR NO CLOUDS BELOW 12,000 FEET AGL WITH NO
       SIGNIFICANT WEATHER OR OBSTRUCTIONS TO VISION.

      THIS PRODUCT IS RELEASED AS TWO VERSIONS.  ONE VERSION NEAR
      THE TOP OF THE HOUR CONTAINING PRELIMINARY DATA FROM ALBUQUERQUE
      AND OTHER STATIONS.  A FINAL VERSION WITH ADDITIONAL DATA IS
      ISSUED ABOUT 10 MINUTES AFTER THE HOUR.

NMZ501-503-504-510>518-202300-
NORTHWEST PLATEAU/NORTHCENTRAL MOUNTAINS

CITY           SKY/WX    TMP DP  RH WIND       PRES   REMARKS
FARMINGTON     MOSUNNY   75  28  17 NW23G40   30.02F
LOS ALAMOS     PTSUNNY   61  35  37 NE6       30.13S
SANTA FE       PTSUNNY   72  31  22 SW13G18   30.05F
TAOS           PTSUNNY   52  39  62 SW6       30.15S
ANGEL FIRE     MOCLDY    56  38  49 W17G23    30.16F

$$
NMZ402-403-502-505>509-202300-
WESTCENTRAL MOUNTAINS/SOUTHWEST MOUNTAINS

CITY           SKY/WX    TMP DP  RH WIND       PRES   REMARKS
GALLUP         MOSUNNY   67  31  26 SW5       30.15F
GRANTS         CLOUDY    66  30  25 NW14G28   30.14F
SILVER CITY    MOSUNNY   72  32  23 SW7G16    30.14F

$$
NMZ407-409-411-412-202300-
SOUTHERN DESERTS

CITY           SKY/WX    TMP DP  RH WIND       PRES   REMARKS
LORDSBURG      FAIR      73  39  29 W7        30.10F
DEMING         SUNNY     76  35  22 W9        30.08F
LAS CRUCES     SUNNY     76  33  20 SW7       30.09F
HOLLOMAN AFB   SUNNY     74  38  27 VRB2      30.05F
ALAMOGORDO     MOSUNNY   73  37  27 NW6       30.08F
T OR C         PTSUNNY   71  36  27 VRB3      30.09F

$$
NMZ519>523-202300-
CENTRAL VALLEYS/CENTRAL HIGHLANDS

CITY           SKY/WX    TMP DP  RH WIND       PRES   REMARKS
ALBUQUERQUE    PTSUNNY   76  28  17 NW18G25   30.05F
DOUBLE EAGLE   PTSUNNY   72  30  21 W16G26    30.08F
MORIARTY ARPT  FAIR      70  32  24 W20G25    30.08F
CLINES CORNERS PTSUNNY   67  33  28 W26G39    30.09F
BELEN          MOCLDY    74  37  25 SW13G20   30.05F
SOCORRO        FAIR      74  37  26 S10G17    30.07F

$$
NMZ524>526-539-540-202300-
SOUTHCENTRAL MOUNTAINS

CITY           SKY/WX    TMP DP  RH WIND       PRES   REMARKS
RUIDOSO        MOSUNNY   63  32  31 NW10G23   30.17F

$$
NMZ527>531-202300-
NORTHEAST HIGHLANDS/NORTHEAST PLAINS

CITY           SKY/WX    TMP DP  RH WIND       PRES   REMARKS
LAS VEGAS      CLOUDY    50  46  86 NE15      30.11F
RATON          PTSUNNY   59  41  51 N13G22    30.06F
CLAYTON        MOSUNNY   67  37  33 NE8G17    29.99F

$$
NMZ532>537-202300-
EASTCENTRAL PLAINS

CITY           SKY/WX    TMP DP  RH WIND       PRES   REMARKS
TUCUMCARI      LGT RAIN  65  47  52 W20G32    29.96S
CANNON AFB     MOSUNNY   73  43  33 W8G18     29.97F
CLOVIS AIRPORT   N/A     73  46  38 SW14G23   30.00F

$$
NMZ028-029-538-202300-
SOUTHEAST PLAINS

CITY           SKY/WX    TMP DP  RH WIND       PRES   REMARKS
ROSWELL        SUNNY     80  38  22 W10       29.97F
ARTESIA        MOSUNNY   77  41  27 SW16      29.99F
CARLSBAD       SUNNY     81  42  25 W18G24    29.97F
HOBBS          MOSUNNY   77  41  27 SW20G29   30.00F


$$



USA.gov is the U.S. government's official web portal to all federal, state and local government web resources and services.